Time,TemperatureF,DewpointF,PressureIn,WindDirection,WindDirectionDegrees,WindSpeedMPH,WindSpeedGustMPH,Humidity,HourlyPrecipIn,Conditions,Clouds,dailyrainin,SoftwareType,DateUTC
2013-04-05 00:02:00,49.0,45.0,-100.00,West,272,1.0,2.0,85,0.00,,,-99.99,,2013-04-05 06:02:00,
2013-04-05 00:12:00,49.0,45.0,-100.00,West,260,0.0,2.0,85,0.00,,,-99.99,,2013-04-05 06:12:00,
2013-04-05 00:22:00,51.0,44.0,-100.00,NW,311,9.0,14.0,76,0.00,,,-99.99,,2013-04-05 06:22:00,
2013-04-05 00:32:00,51.0,44.0,-100.00,NW,311,9.0,14.0,76,0.00,,,-99.99,,2013-04-05 06:32:00,
2013-04-05 00:42:00,51.0,43.0,-100.00,NNW,329,6.0,9.0,73,0.00,,,-99.99,,2013-04-05 06:42:00,
2013-04-05 00:52:00,51.0,42.0,-100.00,ESE,120,3.0,4.0,70,0.00,,,-99.99,,2013-04-05 06:52:00,
2013-04-05 01:02:00,51.0,42.0,-100.00,ESE,120,3.0,4.0,70,0.00,,,-99.99,,2013-04-05 07:02:00,
2013-04-05 01:12:00,51.0,42.0,-100.00,East,88,1.0,2.0,72,0.00,,,-99.99,,2013-04-05 07:12:00,
2013-04-05 01:22:00,51.0,42.0,-100.00,East,96,1.0,2.0,71,0.00,,,-99.99,,2013-04-05 07:22:00,
2013-04-05 01:31:00,51.0,42.0,-100.00,East,96,1.0,2.0,71,0.00,,,-99.99,,2013-04-05 07:31:00,
2013-04-05 01:42:00,51.0,43.0,-100.00,West,274,2.0,4.0,72,0.00,,,-99.99,,2013-04-05 07:42:00,
2013-04-05 01:52:00,51.0,43.0,-100.00,SSE,148,1.0,2.0,76,0.00,,,-99.99,,2013-04-05 07:52:00,
2013-04-05 02:02:00,51.0,43.0,-100.00,SSE,148,1.0,2.0,76,0.00,,,-99.99,,2013-04-05 08:02:00,
2013-04-05 02:12:00,50.0,43.0,-100.00,NE,42,0.0,0.0,77,0.00,,,-99.99,,2013-04-05 08:12:00,
2013-04-05 02:22:00,49.0,43.0,-100.00,North,353,1.0,3.0,79,0.00,,,-99.99,,2013-04-05 08:22:00,
2013-04-05 02:32:00,49.0,43.0,-100.00,North,353,1.0,3.0,79,0.00,,,-99.99,,2013-04-05 08:32:00,
2013-04-05 02:42:00,49.0,43.0,-100.00,North,353,3.0,4.0,78,0.00,,,-99.99,,2013-04-05 08:42:00,
2013-04-05 02:52:00,49.0,43.0,-100.00,North,357,3.0,7.0,80,0.00,,,-99.99,,2013-04-05 08:52:00,
2013-04-05 03:02:00,49.0,43.0,-100.00,North,357,3.0,7.0,80,0.00,,,-99.99,,2013-04-05 09:02:00,
2013-04-05 03:12:00,48.0,43.0,-100.00,SSE,152,3.0,4.0,83,0.00,,,-99.99,,2013-04-05 09:12:00,
2013-04-05 03:22:00,48.0,43.0,-100.00,SSE,155,0.0,1.0,84,0.00,,,-99.99,,2013-04-05 09:22:00,
2013-04-05 03:32:00,48.0,43.0,-100.00,SSE,155,0.0,1.0,84,0.00,,,-99.99,,2013-04-05 09:32:00,
2013-04-05 03:42:00,48.0,43.0,-100.00,SSE,155,0.0,1.0,84,0.00,,,-99.99,,2013-04-05 09:42:00,
2013-04-05 03:53:00,48.0,42.0,-100.00,NNE,18,2.0,4.0,81,0.00,,,-99.99,,2013-04-05 09:53:00,
2013-04-05 04:02:00,48.0,42.0,-100.00,NNE,18,2.0,4.0,81,0.00,,,-99.99,,2013-04-05 10:02:00,
2013-04-05 04:12:00,48.0,42.0,-100.00,NNW,335,2.0,3.0,80,0.00,,,-99.99,,2013-04-05 10:12:00,
2013-04-05 04:23:00,47.0,43.0,-100.00,WSW,248,0.0,1.0,83,0.00,,,-99.99,,2013-04-05 10:23:00,
2013-04-05 04:32:00,47.0,43.0,-100.00,WSW,248,0.0,1.0,83,0.00,,,-99.99,,2013-04-05 10:32:00,
2013-04-05 04:42:00,46.0,44.0,-100.00,SE,145,6.0,8.0,92,0.79,,,-99.99,,2013-04-05 10:42:00,
2013-04-05 04:53:00,45.0,44.0,-100.00,SE,143,6.0,8.0,95,0.16,,,-99.99,,2013-04-05 10:53:00,
2013-04-05 05:02:00,45.0,44.0,-100.00,SE,143,6.0,8.0,95,0.16,,,-99.99,,2013-04-05 11:02:00,
2013-04-05 05:12:00,45.0,44.0,-100.00,NNW,332,2.0,3.0,96,0.20,,,-99.99,,2013-04-05 11:12:00,
2013-04-05 05:21:00,45.0,44.0,-100.00,SE,134,2.0,2.0,97,0.31,,,-99.99,,2013-04-05 11:21:00,
2013-04-05 05:32:00,45.0,44.0,-100.00,SE,134,2.0,2.0,97,0.31,,,-99.99,,2013-04-05 11:32:00,
2013-04-05 05:42:00,45.0,44.0,-100.00,ESE,104,3.0,4.0,97,0.00,,,-99.99,,2013-04-05 11:42:00,
2013-04-05 05:52:00,44.0,43.0,-100.00,SE,141,1.0,2.0,96,0.00,,,-99.99,,2013-04-05 11:52:00,
2013-04-05 06:02:00,44.0,43.0,-100.00,SE,141,1.0,2.0,96,0.00,,,-99.99,,2013-04-05 12:02:00,
2013-04-05 06:12:00,44.0,43.0,-100.00,ESE,121,2.0,3.0,97,0.00,,,-99.99,,2013-04-05 12:12:00,
2013-04-05 06:22:00,43.0,42.0,-100.00,SSE,167,1.0,2.0,97,0.00,,,-99.99,,2013-04-05 12:22:00,
2013-04-05 06:32:00,43.0,42.0,-100.00,SSE,167,1.0,2.0,97,0.00,,,-99.99,,2013-04-05 12:32:00,
2013-04-05 06:42:00,43.0,42.0,-100.00,East,92,0.0,1.0,97,0.00,,,-99.99,,2013-04-05 12:42:00,
2013-04-05 06:52:00,42.0,41.0,-100.00,SE,127,2.0,3.0,97,0.00,,,-99.99,,2013-04-05 12:52:00,
2013-04-05 07:02:00,42.0,41.0,-100.00,SE,127,2.0,3.0,97,0.00,,,-99.99,,2013-04-05 13:02:00,
2013-04-05 07:12:00,42.0,41.0,-100.00,East,86,1.0,3.0,97,0.00,,,-99.99,,2013-04-05 13:12:00,
2013-04-05 07:22:00,41.0,40.0,-100.00,ESE,121,1.0,2.0,97,0.00,,,-99.99,,2013-04-05 13:22:00,
2013-04-05 07:32:00,41.0,40.0,-100.00,ESE,121,1.0,2.0,97,0.00,,,-99.99,,2013-04-05 13:32:00,
2013-04-05 07:42:00,41.0,41.0,-100.00,SSE,160,1.0,2.0,98,0.00,,,-99.99,,2013-04-05 13:42:00,
2013-04-05 07:52:00,41.0,41.0,-100.00,SE,127,2.0,3.0,98,0.00,,,-99.99,,2013-04-05 13:52:00,
2013-04-05 08:02:00,41.0,41.0,-100.00,SE,127,2.0,3.0,98,0.00,,,-99.99,,2013-04-05 14:02:00,
2013-04-05 08:12:00,42.0,41.0,-100.00,East,86,0.0,0.0,98,0.00,,,-99.99,,2013-04-05 14:12:00,
2013-04-05 08:22:00,42.0,42.0,-100.00,WNW,296,0.0,2.0,98,0.00,,,-99.99,,2013-04-05 14:22:00,
2013-04-05 08:35:00,42.0,42.0,-100.00,WNW,296,0.0,2.0,98,0.00,,,-99.99,,2013-04-05 14:35:00,
2013-04-05 08:42:00,42.0,42.0,-100.00,SE,127,1.0,2.0,98,0.00,,,-99.99,,2013-04-05 14:42:00,
2013-04-05 08:53:00,42.0,42.0,-100.00,WSW,239,0.0,0.0,98,0.00,,,-99.99,,2013-04-05 14:53:00,
2013-04-05 09:02:00,42.0,42.0,-100.00,WSW,239,0.0,0.0,98,0.00,,,-99.99,,2013-04-05 15:02:00,
2013-04-05 09:12:00,43.0,42.0,-100.00,NW,308,1.0,2.0,99,0.00,,,-99.99,,2013-04-05 15:12:00,
2013-04-05 09:22:00,43.0,42.0,-100.00,SE,138,0.0,0.0,99,0.00,,,-99.99,,2013-04-05 15:22:00,
2013-04-05 09:32:00,43.0,42.0,-100.00,SE,138,0.0,0.0,99,0.00,,,-99.99,,2013-04-05 15:32:00,
2013-04-05 09:42:00,44.0,43.0,-100.00,NW,315,1.0,3.0,99,0.00,,,-99.99,,2013-04-05 15:42:00,
2013-04-05 09:53:00,44.0,44.0,-100.00,WNW,296,1.0,2.0,99,0.00,,,-99.99,,2013-04-05 15:53:00,
2013-04-05 10:02:00,44.0,44.0,-100.00,WNW,296,1.0,2.0,99,0.00,,,-99.99,,2013-04-05 16:02:00,
2013-04-05 10:13:00,45.0,45.0,-100.00,ESE,121,0.0,1.0,99,0.00,,,-99.99,,2013-04-05 16:13:00,
2013-04-05 10:23:00,46.0,46.0,-100.00,South,174,5.0,9.0,98,0.00,,,-99.99,,2013-04-05 16:23:00,
2013-04-05 10:32:00,46.0,46.0,-100.00,South,174,5.0,9.0,98,0.00,,,-99.99,,2013-04-05 16:32:00,
2013-04-05 10:42:00,48.0,44.0,-100.00,SSE,167,7.0,13.0,85,0.00,,,-99.99,,2013-04-05 16:42:00,
2013-04-05 10:52:00,48.0,43.0,-100.00,SSE,168,8.0,13.0,83,0.00,,,-99.99,,2013-04-05 16:52:00,
2013-04-05 11:02:00,48.0,43.0,-100.00,SSE,168,8.0,13.0,83,0.00,,,-99.99,,2013-04-05 17:02:00,
2013-04-05 11:12:00,48.0,43.0,-100.00,South,169,6.0,10.0,81,0.00,,,-99.99,,2013-04-05 17:12:00,
2013-04-05 11:22:00,51.0,44.0,-100.00,SSE,168,5.0,9.0,77,0.00,,,-99.99,,2013-04-05 17:22:00,
2013-04-05 11:32:00,51.0,44.0,-100.00,SSE,168,5.0,9.0,77,0.00,,,-99.99,,2013-04-05 17:32:00,
2013-04-05 11:44:00,51.0,44.0,-100.00,SSW,196,4.0,8.0,77,0.00,,,-99.99,,2013-04-05 17:44:00,
2013-04-05 11:52:00,50.0,44.0,-100.00,SE,124,2.0,6.0,78,0.00,,,-99.99,,2013-04-05 17:52:00,
2013-04-05 12:02:00,50.0,44.0,-100.00,SE,124,2.0,6.0,78,0.00,,,-99.99,,2013-04-05 18:02:00,
2013-04-05 12:12:00,50.0,44.0,-100.00,SE,124,1.0,3.0,81,0.08,,,-99.99,,2013-04-05 18:12:00,
2013-04-05 12:22:00,51.0,45.0,-100.00,SE,136,1.0,3.0,81,0.00,,,-99.99,,2013-04-05 18:22:00,
2013-04-05 12:32:00,51.0,45.0,-100.00,SE,136,1.0,3.0,81,0.00,,,-99.99,,2013-04-05 18:32:00,
2013-04-05 12:42:00,51.0,45.0,-100.00,SW,222,2.0,6.0,81,0.12,,,-99.99,,2013-04-05 18:42:00,
2013-04-05 12:52:00,48.0,44.0,-100.00,South,169,5.0,11.0,85,0.16,,,-99.99,,2013-04-05 18:52:00,
2013-04-05 13:02:00,48.0,44.0,-100.00,South,169,5.0,11.0,85,0.16,,,-99.99,,2013-04-05 19:02:00,
2013-04-05 13:12:00,48.0,43.0,-100.00,SE,141,2.0,4.0,83,0.00,,,-99.99,,2013-04-05 19:12:00,
2013-04-05 13:22:00,50.0,41.0,-100.00,South,189,1.0,4.0,70,0.00,,,-99.99,,2013-04-05 19:22:00,
2013-04-05 13:32:00,50.0,41.0,-100.00,South,189,1.0,4.0,70,0.00,,,-99.99,,2013-04-05 19:32:00,
2013-04-05 13:42:00,50.0,42.0,-100.00,South,178,5.0,10.0,74,0.00,,,-99.99,,2013-04-05 19:42:00,
2013-04-05 13:52:00,50.0,40.0,-100.00,South,178,3.0,9.0,68,0.00,,,-99.99,,2013-04-05 19:52:00,
2013-04-05 14:02:00,50.0,40.0,-100.00,South,178,3.0,9.0,68,0.00,,,-99.99,,2013-04-05 20:02:00,
2013-04-05 14:10:00,50.0,41.0,-100.00,SSE,155,4.0,5.0,71,0.28,,,-99.99,,2013-04-05 20:10:00,
2013-04-05 14:22:00,49.0,44.0,-100.00,SSE,158,10.0,15.0,82,0.12,,,-99.99,,2013-04-05 20:22:00,
2013-04-05 14:31:00,49.0,44.0,-100.00,SSE,158,10.0,15.0,82,0.12,,,-99.99,,2013-04-05 20:31:00,
2013-04-05 14:42:00,48.0,45.0,-100.00,SE,131,4.0,7.0,88,0.04,,,-99.99,,2013-04-05 20:42:00,
2013-04-05 14:52:00,49.0,45.0,-100.00,SSE,162,6.0,9.0,86,0.12,,,-99.99,,2013-04-05 20:52:00,
2013-04-05 15:01:00,49.0,45.0,-100.00,SSE,162,6.0,9.0,86,0.12,,,-99.99,,2013-04-05 21:01:00,
2013-04-05 15:12:00,51.0,43.0,-100.00,East,93,3.0,6.0,75,0.00,,,-99.99,,2013-04-05 21:12:00,
2013-04-05 15:23:00,53.0,44.0,-100.00,SSE,164,4.0,7.0,72,0.00,,,-99.99,,2013-04-05 21:23:00,
2013-04-05 15:32:00,53.0,44.0,-100.00,SSE,164,4.0,7.0,72,0.00,,,-99.99,,2013-04-05 21:32:00,
2013-04-05 15:42:00,55.0,45.0,-100.00,SSE,167,6.0,9.0,68,0.00,,,-99.99,,2013-04-05 21:42:00,
2013-04-05 16:02:00,55.0,42.0,-100.00,SSE,164,5.0,8.0,60,0.00,,,-99.99,,2013-04-05 22:02:00,
2013-04-05 16:12:00,55.0,40.0,-100.00,SSE,158,6.0,11.0,58,0.00,,,-99.99,,2013-04-05 22:12:00,
2013-04-05 16:22:00,55.0,41.0,-100.00,South,181,5.0,11.0,60,0.00,,,-99.99,,2013-04-05 22:22:00,
2013-04-05 16:32:00,55.0,41.0,-100.00,South,181,5.0,11.0,60,0.00,,,-99.99,,2013-04-05 22:32:00,
2013-04-05 16:42:00,55.0,41.0,-100.00,SSE,165,2.0,3.0,60,0.00,,,-99.99,,2013-04-05 22:42:00,
2013-04-05 16:52:00,55.0,40.0,-100.00,South,185,1.0,2.0,56,0.00,,,-99.99,,2013-04-05 22:52:00,
2013-04-05 17:02:00,55.0,40.0,-100.00,South,185,1.0,2.0,56,0.00,,,-99.99,,2013-04-05 23:02:00,
2013-04-05 17:12:00,55.0,39.0,-100.00,South,175,1.0,2.0,55,0.00,,,-99.99,,2013-04-05 23:12:00,
2013-04-05 17:22:00,55.0,40.0,-100.00,ENE,72,0.0,2.0,58,0.00,,,-99.99,,2013-04-05 23:22:00,
2013-04-05 17:32:00,55.0,40.0,-100.00,ENE,72,0.0,2.0,58,0.00,,,-99.99,,2013-04-05 23:32:00,
2013-04-05 17:42:00,55.0,39.0,-100.00,South,169,1.0,3.0,54,0.00,,,-99.99,,2013-04-05 23:42:00,
2013-04-05 17:52:00,55.0,40.0,-100.00,West,275,1.0,2.0,57,0.00,,,-99.99,,2013-04-05 23:52:00,
2013-04-05 18:02:00,55.0,40.0,-100.00,West,275,1.0,2.0,57,0.00,,,-99.99,,2013-04-06 00:02:00,
2013-04-05 18:12:00,55.0,39.0,-100.00,SSE,168,2.0,6.0,55,0.00,,,-99.99,,2013-04-06 00:12:00,
2013-04-05 18:22:00,55.0,40.0,-100.00,SW,229,0.0,1.0,57,0.00,,,-99.99,,2013-04-06 00:22:00,
2013-04-05 18:32:00,55.0,40.0,-100.00,SW,229,0.0,1.0,57,0.00,,,-99.99,,2013-04-06 00:32:00,
2013-04-05 18:42:00,56.0,38.0,-100.00,SSW,193,1.0,2.0,50,0.00,,,-99.99,,2013-04-06 00:42:00,
2013-04-05 18:52:00,57.0,37.0,-100.00,SSE,164,2.0,3.0,47,0.00,,,-99.99,,2013-04-06 00:52:00,
2013-04-05 19:02:00,57.0,37.0,-100.00,SSE,164,2.0,3.0,47,0.00,,,-99.99,,2013-04-06 01:02:00,
2013-04-05 19:12:00,57.0,37.0,-100.00,SSE,162,3.0,7.0,48,0.00,,,-99.99,,2013-04-06 01:12:00,
2013-04-05 19:22:00,56.0,38.0,-100.00,SSE,157,3.0,4.0,50,0.00,,,-99.99,,2013-04-06 01:22:00,
2013-04-05 19:32:00,56.0,38.0,-100.00,SSE,157,3.0,4.0,50,0.00,,,-99.99,,2013-04-06 01:32:00,
2013-04-05 19:42:00,56.0,38.0,-100.00,SSW,205,0.0,1.0,51,0.00,,,-99.99,,2013-04-06 01:42:00,
2013-04-05 19:53:00,55.0,39.0,-100.00,SW,220,0.0,1.0,55,0.00,,,-99.99,,2013-04-06 01:53:00,
2013-04-05 20:02:00,55.0,39.0,-100.00,SW,220,0.0,1.0,55,0.00,,,-99.99,,2013-04-06 02:02:00,
2013-04-05 20:12:00,54.0,42.0,-100.00,SE,140,1.0,2.0,64,0.00,,,-99.99,,2013-04-06 02:12:00,
2013-04-05 20:22:00,53.0,42.0,-100.00,East,96,2.0,2.0,66,0.00,,,-99.99,,2013-04-06 02:22:00,
2013-04-05 20:32:00,53.0,42.0,-100.00,East,96,2.0,2.0,66,0.00,,,-99.99,,2013-04-06 02:32:00,
2013-04-05 20:42:00,52.0,42.0,-100.00,South,184,0.0,0.0,68,0.00,,,-99.99,,2013-04-06 02:42:00,
2013-04-05 20:52:00,51.0,42.0,-100.00,West,270,0.0,0.0,72,0.00,,,-99.99,,2013-04-06 02:52:00,
2013-04-05 21:02:00,51.0,42.0,-100.00,West,270,0.0,0.0,72,0.00,,,-99.99,,2013-04-06 03:02:00,
2013-04-05 21:12:00,50.0,42.0,-100.00,SSE,154,1.0,2.0,73,0.00,,,-99.99,,2013-04-06 03:12:00,
2013-04-05 21:22:00,50.0,42.0,-100.00,SSE,161,1.0,2.0,74,0.00,,,-99.99,,2013-04-06 03:22:00,
2013-04-05 21:32:00,50.0,42.0,-100.00,SSE,161,1.0,2.0,74,0.00,,,-99.99,,2013-04-06 03:32:00,
2013-04-05 21:42:00,50.0,41.0,-100.00,North,353,2.0,3.0,73,0.00,,,-99.99,,2013-04-06 03:42:00,
2013-04-05 21:53:00,49.0,41.0,-100.00,SW,222,0.0,1.0,75,0.00,,,-99.99,,2013-04-06 03:53:00,
2013-04-05 22:03:00,49.0,41.0,-100.00,SW,222,0.0,1.0,75,0.00,,,-99.99,,2013-04-06 04:03:00,
2013-04-05 22:13:00,49.0,41.0,-100.00,NNE,16,3.0,5.0,72,0.00,,,-99.99,,2013-04-06 04:13:00,
2013-04-05 22:22:00,49.0,40.0,-100.00,NNW,330,2.0,5.0,73,0.00,,,-99.99,,2013-04-06 04:22:00,
2013-04-05 22:32:00,49.0,40.0,-100.00,NNW,330,2.0,5.0,73,0.00,,,-99.99,,2013-04-06 04:32:00,
2013-04-05 22:42:00,48.0,40.0,-100.00,NNW,342,2.0,4.0,76,0.00,,,-99.99,,2013-04-06 04:42:00,
2013-04-05 22:52:00,47.0,40.0,-100.00,NE,38,1.0,5.0,75,0.00,,,-99.99,,2013-04-06 04:52:00,
2013-04-05 23:02:00,47.0,40.0,-100.00,NE,38,1.0,5.0,75,0.00,,,-99.99,,2013-04-06 05:02:00,
2013-04-05 23:12:00,47.0,40.0,-100.00,NE,38,1.0,5.0,75,0.00,,,-99.99,,2013-04-06 05:12:00,
2013-04-05 23:22:00,46.0,40.0,-100.00,WSW,237,0.0,1.0,78,0.00,,,-99.99,,2013-04-06 05:22:00,
2013-04-05 23:32:00,46.0,40.0,-100.00,WSW,237,0.0,1.0,78,0.00,,,-99.99,,2013-04-06 05:32:00,
2013-04-05 23:43:00,46.0,39.0,-100.00,South,181,1.0,2.0,78,0.00,,,-99.99,,2013-04-06 05:43:00,
2013-04-05 23:52:00,46.0,39.0,-100.00,SW,226,0.0,1.0,78,0.00,,,-99.99,,2013-04-06 05:52:00,